| time (UTC) | temp F | wind direction | speed MPH | gust MPH | rain 1hr in | rain 24hr in | rain mn in | humidity % | barometer mb |
| 20260506071528 | 63 | 134 | 4.0 | 9.0 | 0.00 | 0.01 | 0.00 | 60 | 1006.2 |
| 20260506061520 | 64 | 142 | 3.0 | 11.0 | 0.00 | 0.01 | 0.00 | 56 | 1006.5 |
| 20260506044508 | 64 | 118 | 5.0 | 11.0 | 0.00 | 0.01 | 0.00 | 54 | 1007.2 |
| 20260506043006 | 64 | 155 | 4.0 | 9.0 | 0.00 | 0.01 | 0.00 | 54 | 1007.3 |
| 20260506041505 | 65 | 148 | 4.0 | 9.0 | 0.00 | 0.01 | 0.00 | 53 | 1007.3 |
| 20260506040001 | 65 | 145 | 3.0 | 8.0 | 0.00 | 0.01 | 0.00 | 52 | 1007.4 |
| 20260506034600 | 65 | 148 | 4.0 | 9.0 | 0.00 | 0.01 | 0.01 | 52 | 1007.4 |
| 20260506033101 | 65 | 138 | 4.0 | 10.0 | 0.00 | 0.01 | 0.01 | 51 | 1007.3 |
| 20260506031700 | 66 | 146 | 2.0 | 7.0 | 0.00 | 0.01 | 0.01 | 51 | 1007.3 |
| 20260506030059 | 66 | 145 | 3.0 | 8.0 | 0.00 | 0.01 | 0.01 | 50 | 1007.3 |
| 20260506024600 | 67 | 126 | 5.0 | 10.0 | 0.00 | 0.01 | 0.01 | 48 | 1007.3 |
| 20260506023108 | 68 | 152 | 3.0 | 7.0 | 0.00 | 0.01 | 0.01 | 46 | 1007.4 |
| 20260506021617 | 69 | 161 | 4.0 | 12.0 | 0.00 | 0.01 | 0.01 | 45 | 1007.5 |
| 20260506020056 | 69 | 200 | 5.0 | 12.0 | 0.00 | 0.01 | 0.01 | 45 | 1007.4 |
| 20260506014556 | 70 | 140 | 4.0 | 10.0 | 0.00 | 0.01 | 0.01 | 44 | 1007.4 |
| 20260506013108 | 70 | 178 | 6.0 | 10.0 | 0.00 | 0.01 | 0.01 | 43 | 1007.3 |
| 20260506011615 | 70 | 171 | 3.0 | 9.0 | 0.00 | 0.01 | 0.01 | 44 | 1007.1 |
| 20260506010058 | 71 | 137 | 4.0 | 11.0 | 0.00 | 0.01 | 0.01 | 43 | 1006.8 |
| 20260506004554 | 71 | 142 | 6.0 | 14.0 | 0.00 | 0.01 | 0.01 | 43 | 1006.6 |
| 20260506003056 | 71 | 163 | 3.0 | 10.0 | 0.00 | 0.01 | 0.01 | 42 | 1006.6 |
| 20260506001556 | 72 | 200 | 6.0 | 10.0 | 0.00 | 0.01 | 0.01 | 42 | 1006.5 |
| 20260506000053 | 72 | 158 | 5.0 | 9.0 | 0.00 | 0.01 | 0.01 | 41 | 1006.3 |
| 20260505234552 | 73 | 134 | 4.0 | 9.0 | 0.00 | 0.01 | 0.01 | 39 | 1006.3 |
| 20260505233051 | 73 | 177 | 4.0 | 9.0 | 0.00 | 0.01 | 0.01 | 37 | 1006.2 |
| 20260505231605 | 73 | 160 | 3.0 | 10.0 | 0.00 | 0.01 | 0.01 | 37 | 1006.2 |
| 20260505230049 | 73 | 132 | 4.0 | 9.0 | 0.00 | 0.01 | 0.01 | 38 | 1006.1 |
| 20260505224548 | 73 | 196 | 3.0 | 14.0 | 0.00 | 0.01 | 0.01 | 37 | 1006.1 |
| 20260505223048 | 73 | 150 | 5.0 | 12.0 | 0.00 | 0.01 | 0.01 | 37 | 1006.0 |
| 20260505221547 | 74 | 123 | 4.0 | 14.0 | 0.00 | 0.01 | 0.01 | 37 | 1006.0 |
| 20260505220051 | 74 | 145 | 6.0 | 13.0 | 0.00 | 0.01 | 0.01 | 36 | 1005.9 |
| 20260505214554 | 74 | 149 | 5.0 | 17.0 | 0.00 | 0.01 | 0.01 | 36 | 1005.8 |
| 20260505213044 | 74 | 159 | 7.0 | 15.0 | 0.00 | 0.01 | 0.01 | 35 | 1005.8 |
| 20260505211543 | 75 | 152 | 5.0 | 19.0 | 0.00 | 0.01 | 0.01 | 33 | 1005.7 |
| 20260505210044 | 76 | 133 | 8.0 | 16.0 | 0.00 | 0.01 | 0.01 | 33 | 1005.6 |
| 20260505204539 | 76 | 146 | 7.0 | 20.0 | 0.00 | 0.01 | 0.01 | 33 | 1005.4 |
| 20260505203054 | 77 | 166 | 8.0 | 16.0 | 0.00 | 0.01 | 0.01 | 32 | 1005.6 |
| 20260505201543 | 78 | 155 | 7.0 | 19.0 | 0.00 | 0.01 | 0.01 | 32 | 1005.4 |
| 20260505200043 | 77 | 172 | 9.0 | 16.0 | 0.00 | 0.01 | 0.01 | 33 | 1005.4 |
| 20260505194537 | 78 | 193 | 8.0 | 16.0 | 0.00 | 0.01 | 0.01 | 33 | 1005.7 |
| 20260505193034 | 79 | 215 | 5.0 | 18.0 | 0.00 | 0.01 | 0.01 | 32 | 1005.8 |
| 20260505191531 | 78 | 171 | 7.0 | 18.0 | 0.00 | 0.01 | 0.01 | 34 | 1006.1 |
| 20260505190036 | 78 | 123 | 6.0 | 20.0 | 0.00 | 0.01 | 0.01 | 34 | 1006.2 |
| 20260505184534 | 78 | 173 | 5.0 | 21.0 | 0.00 | 0.01 | 0.01 | 32 | 1006.2 |
| 20260505183027 | 79 | 143 | 5.0 | 22.0 | 0.00 | 0.01 | 0.01 | 33 | 1006.4 |
| 20260505181528 | 79 | 132 | 6.0 | 18.0 | 0.00 | 0.01 | 0.01 | 33 | 1006.7 |
| 20260505180022 | 78 | 213 | 6.0 | 18.0 | 0.00 | 0.01 | 0.01 | 32 | 1006.9 |
| 20260505174528 | 78 | 184 | 11.0 | 19.0 | 0.00 | 0.01 | 0.01 | 32 | 1006.9 |
| 20260505173017 | 77 | 148 | 7.0 | 20.0 | 0.00 | 0.01 | 0.01 | 36 | 1007.2 |
| 20260505171516 | 77 | 153 | 9.0 | 20.0 | 0.00 | 0.01 | 0.01 | 35 | 1007.1 |
| 20260505170018 | 76 | 116 | 6.0 | 17.0 | 0.00 | 0.01 | 0.01 | 36 | 1007.1 |
| 20260505164512 | 76 | 146 | 6.0 | 12.0 | 0.00 | 0.01 | 0.01 | 38 | 1007.4 |
| 20260505163013 | 76 | 214 | 5.0 | 17.0 | 0.00 | 0.01 | 0.01 | 40 | 1007.5 |
| 20260505161507 | 75 | 123 | 3.0 | 19.0 | 0.00 | 0.01 | 0.01 | 43 | 1007.8 |
| 20260505153106 | 72 | 227 | 4.0 | 11.0 | 0.00 | 0.01 | 0.01 | 47 | 1008.3 |
| 20260505151604 | 71 | 167 | 5.0 | 16.0 | 0.00 | 0.01 | 0.01 | 49 | 1008.2 |
| 20260505124555 | 63 | 171 | 2.0 | 6.0 | 0.00 | 0.01 | 0.01 | 62 | 1008.8 |
| 20260505123050 | 62 | 158 | 3.0 | 8.0 | 0.00 | 0.01 | 0.01 | 65 | 1008.9 |
| 20260505121558 | 60 | 167 | 4.0 | 10.0 | 0.00 | 0.01 | 0.01 | 68 | 1008.8 |
| 20260505120044 | 59 | 157 | 4.0 | 9.0 | 0.00 | 0.01 | 0.01 | 69 | 1008.8 |
| 20260505114540 | 58 | 248 | 3.0 | 8.0 | 0.00 | 0.01 | 0.01 | 72 | 1009.0 |
| 20260505113040 | 56 | 148 | 2.0 | 7.0 | 0.00 | 0.01 | 0.01 | 77 | 1008.8 |
| 20260505111541 | 55 | 136 | 2.0 | 5.0 | 0.00 | 0.01 | 0.01 | 79 | 1008.5 |
| 20260505101535 | 52 | 281 | 0.0 | 2.0 | 0.00 | 0.01 | 0.01 | 88 | 1008.5 |
| 20260505100034 | 52 | 281 | 0.0 | 2.0 | 0.00 | 0.01 | 0.01 | 88 | 1008.3 |
| 20260505094535 | 52 | 281 | 0.0 | 1.0 | 0.00 | 0.01 | 0.01 | 86 | 1008.3 |
| 20260505093034 | 53 | 281 | 0.0 | 2.0 | 0.01 | 0.01 | 0.01 | 85 | 1008.2 |
| 20260505091528 | 54 | 281 | 0.0 | 3.0 | 0.01 | 0.01 | 0.01 | 83 | 1008.1 |
| 20260505090021 | 55 | 287 | 0.0 | 5.0 | 0.01 | 0.01 | 0.01 | 80 | 1008.3 |
| 20260505084519 | 56 | 241 | 3.0 | 10.0 | 0.01 | 0.01 | 0.01 | 75 | 1008.1 |
| 20260505083014 | 57 | 147 | 2.0 | 4.0 | 0.00 | 0.00 | 0.00 | 65 | 1008.3 |
| 20260505081516 | 57 | 207 | 1.0 | 4.0 | 0.00 | 0.00 | 0.00 | 64 | 1008.4 |
| 20260505080010 | 57 | 144 | 2.0 | 4.0 | 0.00 | 0.00 | 0.00 | 63 | 1008.1 |
| 20260505074509 | 57 | 142 | 2.0 | 4.0 | 0.00 | 0.00 | 0.00 | 63 | 1008.1 |
| 20260505073008 | 57 | 153 | 1.0 | 5.0 | 0.00 | 0.00 | 0.00 | 62 | 1008.1 |